Weather History for Wichita, KS

Change the Weather History Date:

Thursday, April 25, 2013

  Actual Average Record
Temperature  
Mean Temperature 51 °F 59 °F  
Max Temperature 69 °F 71 °F 95 °F (2012)
Min Temperature 33 °F 48 °F 33 °F (2013)
Degree Days  
Heating Degree Days 14 7  
Month to date heating degree days 399 260  
Since 1 July heating degree days 4336 4477  
Cooling Degree Days 0 1  
Month to date cooling degree days 3 18  
Year to date cooling degree days 3 20  
Growing Degree Days 1 (Base 50)    
Moisture  
Dew Point 36 °F    
Average Humidity 62    
Maximum Humidity 89    
Minimum Humidity 34    
Precipitation  
Precipitation T in 0.10 in 1.32 in (1915)
Month to date precipitation 3.26 2.05  
Year to date precipitation 8.39 6.75  
Snow  
Snow 0.00 in 0.00 in T in (2011)
Month to date snowfall 0.2 0.2  
Since 1 July snowfall 30.0 14.9  
Snow Depth 0.00 in    
Sea Level Pressure  
Sea Level Pressure 30.23 in    
Wind  
Wind Speed 11 mph (South)    
Max Wind Speed 32 mph    
Max Gust Speed 41 mph    
Visibility 10 miles    
Events Rain    
T = Trace of Precipitation, MM = Missing Value Source: NWS Daily Summary

Daily Weather History Graph

Daily Weather History Graph

Search for Another Location

Airport:

Trip Planner

Search our weather history database for the weather conditions in past years. The results will help you decide how hot, cold, wet, or windy it might be!

Date:

Astronomy

Apr. 25, 2013 Rise Set
Actual Time 6:41 AM CDT 8:14 PM CDT
Civil Twilight 6:13 AM CDT 8:42 PM CDT
Nautical Twilight 5:40 AM CDT 9:15 PM CDT
Astronomical Twilight 5:04 AM CDT 9:51 PM CDT
Moon 8:28 PM CDT (4/25) 6:24 AM CDT (4/25)
Length of Visible Light 14h 29m
Length of Day
13h 33m
Full, 100% of the Moon is Illuminated
Apr 25
Full
Apr 25
Full
May 2
Last Quarter
May 9
New
May 17
First Quarter

Hourly Weather History & Observations

Time (CDT) Temp. Windchill Dew Point Humidity Pressure Visibility Wind Dir Wind Speed Gust Speed Precip Events Conditions
12:53 AM 39.0 °F 34.0 °F 32.0 °F 76% 30.29 in 10.0 mi SSW 6.9 mph - N/A   Partly Cloudy
1:53 AM 39.0 °F 35.7 °F 30.9 °F 73% 30.30 in 10.0 mi SSW 4.6 mph - N/A   Clear
2:53 AM 37.0 °F 34.5 °F 30.9 °F 79% 30.29 in 10.0 mi SSW 3.5 mph - N/A   Clear
3:53 AM 36.0 °F 32.1 °F 30.9 °F 82% 30.29 in 10.0 mi SSW 4.6 mph - N/A   Partly Cloudy
4:53 AM 35.1 °F 30.1 °F 30.9 °F 85% 30.29 in 10.0 mi South 5.8 mph - N/A   Partly Cloudy
5:53 AM 37.9 °F - 32.0 °F 79% 30.29 in 10.0 mi Calm Calm - N/A   Partly Cloudy
6:53 AM 33.1 °F 27.7 °F 30.0 °F 89% 30.30 in 10.0 mi SSE 5.8 mph - N/A   Partly Cloudy
7:53 AM 37.9 °F - 32.0 °F 79% 30.32 in 10.0 mi Calm Calm - N/A   Partly Cloudy
8:53 AM 45.0 °F 43.5 °F 32.0 °F 60% 30.32 in 10.0 mi SSW 3.5 mph - N/A   Partly Cloudy
9:53 AM 52.0 °F - 32.0 °F 47% 30.31 in 10.0 mi Variable 4.6 mph - N/A   Scattered Clouds
10:53 AM 57.0 °F - 32.0 °F 39% 30.30 in 10.0 mi South 4.6 mph - N/A   Scattered Clouds
11:53 AM 61.0 °F - 37.0 °F 41% 30.30 in 10.0 mi South 11.5 mph - N/A   Scattered Clouds
12:53 PM 64.0 °F - 36.0 °F 35% 30.27 in 10.0 mi South 16.1 mph - N/A   Scattered Clouds
1:53 PM 66.9 °F - 37.0 °F 33% 30.24 in 10.0 mi South 16.1 mph - N/A   Mostly Cloudy
2:53 PM 68.0 °F - 39.9 °F 36% 30.23 in 10.0 mi South 16.1 mph - N/A   Scattered Clouds
3:53 PM 66.9 °F - 41.0 °F 39% 30.20 in 10.0 mi South 18.4 mph - N/A   Mostly Cloudy
4:53 PM 64.9 °F - 39.9 °F 40% 30.17 in 10.0 mi South 18.4 mph - N/A   Mostly Cloudy
5:53 PM 62.1 °F - 43.0 °F 50% 30.16 in 10.0 mi South 10.4 mph - N/A   Overcast
6:53 PM 60.1 °F - 45.0 °F 57% 30.14 in 10.0 mi South 10.4 mph - N/A   Overcast
7:53 PM 59.0 °F - 45.0 °F 60% 30.11 in 10.0 mi South 16.1 mph - 0.00 in Rain Light Rain
8:53 PM 57.9 °F - 44.1 °F 60% 30.07 in 10.0 mi South 19.6 mph - 0.00 in   Overcast
9:53 PM 61.0 °F - 34.0 °F 36% 30.03 in 10.0 mi South 32.2 mph 41.4 mph N/A   Mostly Cloudy
10:53 PM 60.1 °F - 34.0 °F 38% 30.05 in 10.0 mi South 25.3 mph 31.1 mph N/A   Mostly Cloudy
11:53 PM 59.0 °F - 35.1 °F 41% 30.07 in 10.0 mi South 18.4 mph 26.5 mph N/A   Overcast